Wind_Speed
47 46 45 44 42 41 40 39 39 39 38 37 36 35 35 36 35 35 35 35 36 37 37 37 37 37 37 38 38 39 39 40 40 41 41 41 40 40 40 40 40 39 39
47 46 45 44 42 41 41 40 39 39 38 38 37 37 37 37 37 37 37 38 38 39 39 39 39 40 40 41 41 41 42 43 43 44 45 44 44 43 43 43 43 43 43
48 47 46 44 43 42 41 40 40 40 39 38 38 38 38 38 38 38 39 40 41 41 41 41 42 42 43 43 43 44 45 46 46 47 48 48 47 47 47 47 47 47 46
48 47 46 44 43 42 41 41 40 40 40 39 39 39 39 39 40 41 41 41 42 42 43 43 44 44 45 45 46 47 47 48 49 50 50 51 52 51 50 50 50 49 49
46 46 45 44 43 42 41 41 40 40 40 40 40 40 41 41 41 42 42 43 43 44 44 45 45 46 47 47 48 48 49 50 51 52 53 54 55 54 54 53 53 52 52
43 44 44 44 43 42 41 41 41 41 41 41 41 41 41 42 42 43 43 44 44 45 46 47 47 47 48 49 49 50 51 52 53 54 54 55 56 56 57 57 56 56 54
42 43 42 42 42 41 41 41 41 41 41 41 42 42 42 43 43 44 44 45 45 46 46 47 48 48 49 49 50 51 52 54 55 56 56 57 58 58 58 59 58 58 57
41 41 41 41 41 41 41 41 41 41 41 42 42 42 42 43 43 44 44 45 46 46 46 46 47 48 48 49 51 52 54 55 56 57 58 59 59 60 60 59 58 58 58
39 40 41 41 41 40 40 40 41 41 41 41 41 41 42 42 43 44 44 44 45 45 45 45 46 46 47 49 51 53 54 55 57 58 58 59 60 60 60 59 58 58 58
37 39 40 40 40 40 40 40 40 40 40 41 41 41 41 42 42 42 42 43 43 44 44 44 45 46 47 49 51 52 53 54 56 57 57 58 59 59 58 57 56 56 56
36 37 37 38 39 39 39 39 39 39 39 40 40 40 40 40 40 40 41 41 41 42 42 42 43 45 46 48 49 50 52 53 53 54 54 54 53 54 54 54 55 54 54
34 35 36 37 37 38 37 37 37 37 37 37 37 37 37 38 38 38 39 39 39 39 39 41 42 43 45 46 47 48 49 49 49 50 50 49 48 49 49 50 51 51 51
33 34 34 35 36 36 35 35 35 35 35 35 35 35 36 36 36 36 36 36 36 37 38 38 39 41 42 43 44 45 45 45 45 44 44 44 43 43 43 44 46 47 49
30 31 32 33 33 33 33 33 32 32 32 33 33 33 34 34 33 34 34 34 34 35 36 37 38 39 40 40 41 41 41 40 40 40 39 39 39 38 38 40 41 43 45
27 28 28 29 29 30 30 30 30 30 30 30 31 31 31 31 32 32 32 32 33 34 34 35 36 37 37 37 37 36 36 36 35 35 35 34 34 34 36 37 38 40 42
24 25 25 26 27 27 27 27 28 28 28 28 29 29 29 29 30 30 30 31 31 31 32 32 33 33 34 34 34 33 33 32 32 32 32 32 32 33 34 35 37 39 41
22 23 23 24 25 25 26 26 26 27 27 27 28 28 27 27 28 28 28 28 29 29 29 30 30 31 31 31 32 32 31 30 30 29 30 30 30 31 32 34 36 37 38
22 22 22 23 24 24 25 25 25 25 26 26 26 26 25 26 26 26 26 26 27 27 27 28 28 28 28 28 28 28 28 27 28 27 27 28 29 30 33 35 36 37 39
20 21 22 22 23 23 24 24 24 24 24 24 24 24 23 24 24 24 24 24 25 25 26 26 27 27 27 27 27 27 27 27 27 27 28 29 30 31 33 35 37 38 40
20 21 21 21 22 22 22 22 22 22 22 22 22 22 22 22 22 23 22 23 23 24 25 25 25 26 26 26 25 25 25 26 26 27 28 29 30 32 34 36 38 40 42
20 20 20 20 20 20 20 20 20 21 21 21 21 21 21 22 22 22 21 21 22 23 23 24 24 24 25 24 24 24 25 26 27 28 29 30 32 34 36 37 39 41 43
19 19 19 19 19 19 19 19 20 20 20 20 20 20 21 21 21 21 21 22 22 22 22 23 23 23 24 24 25 25 26 27 28 29 30 32 34 35 37 39 41 43 45
19 19 19 19 19 19 19 20 20 20 20 20 20 20 20 20 21 21 21 21 22 22 22 22 23 23 24 25 25 26 27 28 30 31 32 34 35 37 39 41 43 44 46
19 18 18 19 19 19 19 19 19 19 19 20 19 19 20 20 20 21 21 21 22 22 22 22 23 24 25 26 27 28 29 30 32 33 34 36 38 40 41 43 44 46 46
18 18 18 18 18 18 19 18 18 18 18 19 19 19 19 20 20 21 21 22 22 22 23 23 24 25 26 27 28 29 31 32 33 35 37 39 40 42 43 45 46 46 47
19 19 19 19 19 19 18 18 19 18 18 19 19 20 20 20 21 21 21 22 22 23 24 25 26 27 28 29 30 31 32 34 35 37 39 40 42 43 45 46 47 47 47
Wind_Direction
230 231 232 235 237 240 242 245 248 250 253 256 258 261 264 266 269 271 274 276 277 277 278 279 280 280 280 280 280 281 281 282 282 282 282 282 283 284 285 285 285 286 286
231 232 234 236 239 241 243 245 247 249 252 255 258 260 263 266 269 272 274 275 276 277 278 278 279 280 280 280 281 281 281 281 282 282 282 282 282 283 283 283 284 284 284
232 233 235 237 239 241 244 246 248 250 252 254 257 260 263 266 269 272 273 274 276 277 278 278 279 279 280 280 281 281 281 281 281 282 282 282 282 281 281 282 283 283 282
233 234 236 239 240 242 244 246 248 250 252 255 257 260 263 266 269 270 272 274 276 277 278 278 279 280 280 280 281 281 281 281 281 281 281 281 281 281 281 281 282 282 282
235 236 238 240 241 242 244 246 247 250 253 255 258 261 264 266 268 270 272 274 275 276 277 278 279 279 280 280 281 281 280 281 281 281 281 281 281 281 281 281 281 281 281
236 237 239 240 242 243 245 246 248 250 253 256 259 261 264 266 268 270 272 273 274 276 277 278 279 279 280 280 280 280 281 281 281 281 281 281 281 282 281 280 280 280 280
236 237 239 241 242 244 246 248 250 252 254 257 259 261 264 266 268 270 271 273 274 276 276 277 279 279 280 280 281 281 282 282 282 282 282 281 280 280 280 280 280 279 279
237 238 240 242 243 245 247 249 252 254 255 257 259 262 264 265 267 269 271 273 274 275 276 277 278 279 280 280 281 282 283 283 283 282 282 281 280 279 278 278 278 278 278
238 239 240 242 244 246 248 250 252 254 255 257 259 261 263 266 268 270 271 273 275 276 277 278 279 279 280 281 282 283 284 283 283 282 281 281 280 279 278 277 277 277 277
238 239 241 242 244 247 249 250 252 253 255 257 259 261 264 266 268 270 271 273 275 276 277 278 280 280 282 283 283 284 285 284 283 283 282 281 280 279 277 276 276 276 276
238 239 240 242 244 246 248 249 251 253 255 257 259 262 264 266 268 270 272 274 275 277 278 279 281 282 283 284 285 286 286 286 285 284 283 282 281 279 277 274 274 274 275
237 238 239 241 243 245 247 249 251 253 255 257 260 262 264 267 269 272 274 276 277 278 280 281 283 285 286 286 287 288 289 288 288 286 284 283 282 280 278 276 276 276 275
236 238 239 240 242 244 246 248 251 253 255 258 261 263 266 269 271 274 276 278 278 279 281 284 286 288 289 289 290 291 291 290 289 288 286 284 283 282 280 278 277 276 276
236 238 239 240 242 244 246 249 251 254 257 260 263 266 268 271 273 275 277 278 280 281 284 285 287 289 291 292 293 294 293 292 291 289 287 285 283 281 280 280 279 278 278
237 239 240 242 243 245 247 250 253 256 259 262 265 267 269 271 273 275 278 281 282 283 285 287 289 291 293 294 295 297 297 296 294 291 288 286 284 282 282 282 281 281 281
238 239 241 243 245 247 250 253 255 258 261 263 266 268 270 272 274 276 280 282 283 285 287 290 293 294 295 295 295 297 298 297 297 294 290 288 287 285 284 283 283 284 284
240 241 243 246 248 251 253 256 257 259 261 264 266 268 271 273 275 278 281 282 284 286 290 293 296 297 297 297 297 297 297 297 296 294 292 290 289 288 287 287 287 288 288
242 245 247 249 252 254 256 258 259 260 261 263 265 268 271 274 277 279 281 283 286 288 291 294 296 298 300 301 302 302 302 301 299 297 297 295 293 292 291 292 292 293 293
245 247 250 252 254 256 257 258 258 259 261 263 266 269 272 274 277 281 282 284 287 289 292 295 297 299 300 301 302 303 302 301 301 300 299 298 297 296 295 295 295 296 296
249 249 250 252 254 256 257 257 257 259 261 263 266 268 271 274 277 280 283 286 289 290 292 296 298 300 302 303 302 302 302 303 303 303 302 301 301 300 300 300 300 300 300
251 250 250 252 254 255 256 257 258 260 262 264 266 268 270 274 278 280 282 287 290 293 294 296 299 300 302 303 303 303 304 305 305 305 305 305 305 304 304 304 303 303 303
251 251 252 253 255 256 257 258 260 261 263 264 266 268 271 274 278 280 283 287 291 293 295 297 298 300 302 303 304 305 305 307 307 307 307 307 307 307 307 307 306 306 306
251 252 254 255 257 258 259 260 260 261 263 264 266 268 271 274 278 281 284 288 292 294 296 297 299 301 303 305 307 307 307 308 308 309 309 309 310 310 309 309 309 309 309
252 254 255 256 257 260 261 261 261 261 263 264 267 269 271 275 278 282 285 288 292 295 296 298 299 302 304 307 307 308 308 309 310 311 311 312 312 311 311 311 311 311 311
253 254 256 257 258 261 262 262 261 262 264 265 267 271 273 276 279 283 286 289 292 294 296 298 300 302 305 306 307 308 310 311 312 312 313 313 313 312 312 313 313 312 312
253 254 256 258 259 261 263 262 262 262 264 266 269 272 274 276 280 284 288 289 291 294 296 299 301 303 305 307 308 310 311 312 313 313 314 314 314 314 314 314 314 314 313
Height
5758 5764 5769 5774 5779 5783 5786 5790 5793 5795 5797 5799 5801 5803 5804 5805 5807 5807 5808 5808 5809 5809 5809 5809 5809 5808 5808 5807 5807 5806 5805 5804 5803 5802 5801 5800 5799 5798 5796 5794 5793 5792 5790
5750 5756 5762 5767 5772 5776 5780 5783 5785 5788 5790 5792 5794 5796 5797 5798 5799 5800 5801 5801 5801 5801 5801 5801 5800 5800 5799 5799 5798 5797 5796 5795 5793 5792 5790 5790 5790 5789 5786 5785 5783 5782 5780
5743 5749 5755 5760 5765 5769 5773 5776 5778 5781 5783 5785 5787 5788 5790 5791 5792 5793 5793 5793 5792 5792 5792 5792 5791 5791 5790 5789 5788 5787 5786 5785 5783 5782 5780 5779 5779 5777 5776 5774 5772 5771 5770
5736 5742 5747 5752 5757 5761 5765 5768 5771 5773 5775 5777 5779 5781 5782 5784 5784 5784 5785 5784 5784 5783 5783 5783 5782 5781 5780 5780 5778 5777 5776 5774 5773 5771 5769 5768 5766 5765 5764 5763 5761 5759 5758
5728 5734 5739 5744 5749 5753 5757 5760 5763 5766 5767 5769 5771 5773 5774 5775 5776 5776 5776 5776 5775 5775 5774 5773 5772 5771 5770 5769 5768 5766 5765 5763 5761 5760 5758 5755 5753 5751 5750 5749 5749 5747 5745
5721 5726 5731 5736 5740 5745 5749 5752 5755 5757 5759 5761 5763 5764 5766 5766 5767 5767 5767 5766 5766 5765 5764 5763 5762 5761 5760 5758 5757 5755 5753 5751 5749 5748 5746 5743 5741 5739 5736 5735 5734 5733 5732
5713 5718 5723 5728 5732 5736 5740 5743 5746 5749 5751 5752 5754 5755 5757 5757 5758 5758 5757 5757 5757 5756 5755 5753 5752 5750 5749 5747 5745 5743 5741 5739 5737 5734 5732 5730 5728 5726 5723 5721 5719 5718 5718
5705 5710 5715 5719 5724 5727 5731 5734 5737 5739 5742 5743 5745 5746 5747 5748 5748 5748 5748 5747 5746 5746 5745 5743 5741 5740 5738 5736 5734 5731 5729 5726 5723 5720 5717 5715 5713 5711 5709 5707 5705 5703 5702
5698 5702 5706 5711 5715 5718 5722 5725 5728 5730 5732 5734 5736 5737 5738 5738 5739 5738 5738 5737 5736 5735 5734 5733 5731 5729 5727 5724 5722 5719 5716 5713 5709 5706 5703 5699 5697 5695 5693 5692 5690 5689 5687
5690 5694 5698 5702 5706 5710 5713 5716 5718 5721 5723 5725 5726 5727 5728 5728 5728 5728 5728 5727 5726 5725 5724 5722 5720 5718 5715 5712 5709 5706 5702 5699 5695 5691 5688 5684 5682 5679 5678 5677 5675 5674 5673
5682 5686 5690 5693 5697 5700 5703 5706 5709 5711 5713 5715 5716 5718 5718 5718 5719 5718 5718 5717 5716 5715 5713 5711 5709 5706 5703 5700 5696 5693 5689 5684 5680 5676 5673 5669 5666 5664 5663 5662 5661 5660 5660
5674 5678 5682 5685 5688 5692 5695 5698 5700 5702 5704 5706 5707 5708 5709 5709 5709 5709 5708 5707 5706 5704 5702 5700 5698 5695 5692 5688 5684 5680 5675 5671 5667 5663 5659 5655 5653 5651 5649 5649 5648 5647 5647
5667 5671 5674 5677 5681 5684 5687 5689 5692 5694 5695 5697 5698 5699 5699 5700 5699 5699 5698 5697 5695 5694 5692 5689 5687 5683 5680 5676 5672 5667 5663 5658 5654 5650 5646 5643 5641 5639 5638 5637 5636 5636 5635
5661 5664 5667 5670 5673 5676 5679 5681 5684 5685 5687 5688 5689 5690 5690 5690 5690 5689 5688 5687 5685 5684 5681 5679 5676 5673 5669 5665 5660 5656 5651 5647 5643 5639 5635 5633 5630 5629 5628 5627 5626 5625 5624
5655 5658 5661 5664 5667 5669 5672 5674 5676 5678 5679 5680 5681 5681 5681 5681 5681 5680 5679 5677 5676 5674 5672 5669 5666 5662 5658 5654 5650 5646 5641 5637 5633 5629 5626 5624 5622 5620 5619 5618 5616 5615 5614
5650 5653 5655 5658 5660 5663 5665 5667 5669 5670 5671 5672 5673 5673 5673 5673 5672 5671 5670 5669 5667 5665 5662 5659 5656 5653 5649 5645 5641 5637 5633 5629 5625 5621 5618 5616 5614 5612 5611 5609 5607 5606 5604
5645 5648 5650 5652 5655 5657 5658 5660 5661 5662 5663 5664 5665 5665 5665 5665 5664 5663 5662 5660 5658 5656 5654 5651 5647 5644 5640 5636 5633 5629 5625 5621 5617 5614 5611 5609 5607 5605 5603 5601 5598 5596 5593
5641 5643 5645 5647 5649 5650 5652 5653 5654 5655 5656 5657 5657 5657 5657 5657 5656 5655 5654 5652 5651 5648 5646 5643 5640 5637 5633 5629 5625 5622 5618 5614 5611 5608 5605 5602 5600 5598 5595 5593 5590 5587 5584
5636 5638 5639 5641 5642 5644 5645 5646 5647 5648 5649 5650 5650 5650 5650 5650 5649 5648 5647 5645 5643 5641 5639 5636 5633 5630 5626 5623 5619 5615 5612 5609 5605 5602 5599 5596 5593 5591 5588 5585 5581 5578 5574
5630 5632 5634 5635 5636 5638 5639 5640 5641 5642 5643 5643 5643 5643 5643 5643 5642 5641 5640 5639 5637 5635 5632 5629 5626 5623 5620 5616 5613 5610 5606 5603 5600 5596 5593 5590 5586 5583 5579 5576 5572 5568 5563
5625 5627 5628 5629 5631 5632 5633 5634 5635 5636 5636 5637 5637 5637 5637 5637 5636 5635 5634 5632 5630 5628 5626 5623 5620 5617 5614 5611 5607 5604 5601 5597 5594 5590 5586 5583 5579 5575 5571 5567 5562 5557 5552
5620 5621 5623 5624 5625 5626 5627 5628 5629 5630 5630 5630 5631 5631 5631 5631 5630 5629 5628 5626 5624 5622 5620 5617 5614 5611 5608 5605 5602 5598 5595 5591 5588 5584 5580 5576 5571 5567 5562 5557 5551 5546 5540
5615 5616 5617 5618 5619 5620 5621 5622 5623 5624 5624 5625 5625 5625 5625 5625 5624 5623 5622 5620 5618 5616 5614 5611 5609 5606 5603 5599 5596 5592 5589 5585 5581 5577 5572 5568 5563 5557 5552 5546 5540 5534 5528
5610 5611 5612 5613 5614 5615 5616 5616 5617 5618 5618 5619 5619 5619 5619 5619 5618 5617 5616 5614 5612 5610 5608 5606 5603 5600 5597 5593 5590 5586 5582 5578 5573 5569 5564 5559 5553 5548 5542 5536 5529 5522 5516
5604 5606 5607 5608 5609 5609 5610 5611 5611 5612 5613 5613 5613 5613 5613 5613 5612 5611 5610 5608 5606 5604 5602 5600 5597 5594 5590 5587 5583 5579 5575 5570 5566 5560 5555 5550 5544 5538 5531 5524 5517 5510 5503
5599 5600 5601 5602 5603 5604 5605 5605 5606 5607 5607 5607 5608 5607 5607 5607 5606 5605 5604 5602 5600 5598 5596 5593 5590 5587 5584 5580 5576 5571 5567 5562 5557 5552 5546 5540 5534 5527 5520 5513 5506 5498 5491